This is the latest recevied weather packets stored in our database for station/object VK4TW-13. If no packets are shown the sender has not sent any weather packets the latest 10 day(s).
| Time | Temp. | Humidity | Pressure | Rain* | Wind** | Luminosity | Snow |
|---|---|---|---|---|---|---|---|
| 1788630952 | 16.11° C | 100% | 1017.5 hPa | 0 mm | - | - | - |
| 1788630350 | 15.56° C | 100% | 1017.6 hPa | 0 mm | - | - | - |
| 1788629749 | 16.11° C | 100% | 1017.6 hPa | 0 mm | - | - | - |
| 1788629149 | 16.11° C | 100% | 1017.6 hPa | 0 mm | - | - | - |
| 1788628547 | 16.11° C | 100% | 1017.8 hPa | 0 mm | - | - | - |
| 1788627946 | 15.56° C | 100% | 1017.9 hPa | 0 mm | - | - | - |
| 1788627349 | 16.11° C | 100% | 1017.9 hPa | 0 mm | - | - | - |
| 1788626744 | 16.11° C | 100% | 1017.9 hPa | 0 mm | - | - | - |
| 1788626145 | 16.11° C | 100% | 1018 hPa | 0 mm | - | - | - |
| 1788625543 | 16.11° C | 100% | 1018 hPa | 0 mm | - | - | - |
| 1788624942 | 16.11° C | 100% | 1018 hPa | 0 mm | - | - | - |
| 1788624341 | 16.67° C | 100% | 1018.2 hPa | 0 mm | - | - | - |
| 1788623741 | 16.67° C | 100% | 1018.2 hPa | 0 mm | - | - | - |
| 1788623140 | 16.67° C | 100% | 1018.3 hPa | 0 mm | - | - | - |
| 1788622538 | 16.67° C | 100% | 1018.3 hPa | 0 mm | - | - | - |
| 1788621938 | 16.11° C | 100% | 1018.5 hPa | 0 mm | - | - | - |
| 1788621336 | 16.11° C | 100% | 1018.7 hPa | 0 mm | - | - | - |
| 1788620735 | 16.11° C | 100% | 1018.6 hPa | 0 mm | - | - | - |
| 1788620135 | 16.11° C | 100% | 1018.8 hPa | 0 mm | - | - | - |
| 1788619533 | 16.11° C | 100% | 1018.7 hPa | 0 mm | - | - | - |
| 1788618933 | 16.67° C | 100% | 1018.9 hPa | 0 mm | - | - | - |
| 1788618332 | 16.67° C | 100% | 1018.9 hPa | 0 mm | - | - | - |
| 1788617731 | 16.67° C | 100% | 1018.9 hPa | 0 mm | - | - | - |
| 1788617130 | 17.22° C | 100% | 1019 hPa | 0 mm | - | - | - |
| 1788616530 | 17.22° C | 100% | 1019 hPa | 0 mm | - | - | - |
* Rain since midnight (hover to see other rain measurements)
** Current wind speed in m/s (hover to see current wind gust speed)